sat.trackr.live / text

‹ back to catalog

GSAT0103 (GALILEO-FM3)

NORAD 38857 · 2012-055A

PAYLOAD ACTIVE UNKNOWN

§ Identity

Operator
Country
ESA
Launch date
2012-10-12
Launch site
FRGUI
Launch vehicle
Mass (kg)
RCS (m²)
8.57

Purposes: earth_obs, nav

External: N2YO · Heavens-Above · Gunter

§ Orbital elements

Epoch: 2026-05-23T06:03:23.148000Z

Period
844.71 min
Inclination
55.7947°
Eccentricity
0.0005482
Mean motion
1.70473380 rev/d
Perigee alt
23,206.0 km
Apogee alt
23,238.5 km
Semi-major
29,600.4 km
B*
0.0000e+0
RAAN
102.2291°
Arg perigee
300.3208°
Mean anomaly
59.5856°
Rev number
8,458

§ Raw data

GSAT0103 (GALILEO-FM3)1 38857U 12055A   26143.25235125  .00000021  00000+0  00000+0 0  99962 38857  55.7947 102.2291 0005482 300.3208  59.5856  1.70473380 84588

JSON: /api/v1/satellites/38857 · /tle

For live sub-satellite position, see the globe view (requires WebGL).

§ Visibility from observer

Set your observer location to see the next 7 days of passes ≥ 10°. The values pass through the URL so the page stays shareable.

No JS? Fill the form by hand. The geolocation button needs JavaScript.